NI4CE-14 Weather Reports


Display with metric or nautical units.
time (UTC)temp
F
wind
direction
speed
MPH
gust
MPH
rain 1hr
in
rain 24hr
in
rain mn
in
humidity
%
barometer
mb
20260510204304 89 9 6.0 7.0 0.00 0.00 0.00 100 1013.7
20260510203804 89 285 3.0 9.0 0.00 0.00 0.00 100 1013.7
20260510203304 89 319 4.0 8.0 0.00 0.00 0.00 100 1013.7
20260510202804 89 309 3.0 8.0 0.00 0.00 0.00 100 1013.8
20260510202306 89 23 3.0 9.0 0.00 0.00 0.00 100 1013.7
20260510201804 89 343 5.0 10.0 0.00 0.00 0.00 100 1013.7
20260510201304 90 316 2.0 9.0 0.00 0.00 0.00 100 1013.7
20260510200804 90 323 1.0 6.0 0.00 0.00 0.00 100 1013.7
20260510200304 89 253 1.0 9.0 0.00 0.00 0.00 100 1013.6
20260510195804 90 315 1.0 8.0 0.00 0.00 0.00 100 1013.7
20260510195306 90 271 0.0 8.0 0.00 0.00 0.00 100 1013.7
20260510194804 90 246 0.0 6.0 0.00 0.00 0.00 100 1013.7
20260510194304 90 316 6.0 8.0 0.00 0.00 0.00 100 1013.8
20260510193804 90 329 1.0 7.0 0.00 0.00 0.00 100 1013.8
20260510193304 90 56 1.0 8.0 0.00 0.00 0.00 100 1013.8
20260510192804 90 150 1.0 7.0 0.00 0.00 0.00 100 1013.8
20260510192306 90 268 3.0 5.0 0.00 0.00 0.00 100 1013.8
20260510191804 90 267 4.0 9.0 0.00 0.00 0.00 100 1013.8
20260510191304 90 326 2.0 9.0 0.00 0.00 0.00 100 1013.9
20260510190804 90 28 0.0 7.0 0.00 0.00 0.00 100 1013.8
20260510190304 90 299 4.0 11.0 0.00 0.00 0.00 100 1013.9
20260510185804 91 7 5.0 9.0 0.00 0.00 0.00 100 1013.9
20260510185748 90 1 6.0 8.0 0.00 0.00 0.00 100 1013.9
20260510185306 90 1 6.0 8.0 0.00 0.00 0.00 100 1013.9
20260510184804 91 295 3.0 12.0 0.00 0.00 0.00 100 1014.1
20260510184304 91 277 2.0 9.0 0.00 0.00 0.00 100 1014.1
20260510183804 91 295 3.0 9.0 0.00 0.00 0.00 100 1014.0
20260510183304 92 310 5.0 8.0 0.00 0.00 0.00 100 1014.0
20260510182804 91 241 2.0 6.0 0.00 0.00 0.00 100 1014.1
20260510182306 92 111 1.0 9.0 0.00 0.00 0.00 100 1014.1
20260510181804 92 243 0.0 6.0 0.00 0.00 0.00 100 1014.0
20260510181304 92 18 0.0 6.0 0.00 0.00 0.00 100 1014.2
20260510180804 92 322 2.0 11.0 0.00 0.00 0.00 100 1014.3
20260510180304 92 310 2.0 7.0 0.00 0.00 0.00 100 1014.3
20260510175804 92 288 2.0 7.0 0.00 0.00 0.00 100 1014.4
20260510175306 92 216 2.0 7.0 0.00 0.00 0.00 100 1014.4
20260510174804 92 149 3.0 7.0 0.00 0.00 0.00 100 1014.3
20260510174304 92 250 1.0 7.0 0.00 0.00 0.00 100 1014.4
20260510173804 92 239 3.0 7.0 0.00 0.00 0.00 100 1014.4
20260510173304 91 14 1.0 7.0 0.00 0.00 0.00 100 1014.4
20260510172804 92 230 0.0 8.0 0.00 0.00 0.00 100 1014.3
20260510172306 92 232 4.0 8.0 0.00 0.00 0.00 100 1014.5
20260510171804 92 232 1.0 12.0 0.00 0.00 0.00 100 1014.5
20260510171304 92 139 1.0 7.0 0.00 0.00 0.00 100 1014.6
20260510170804 93 333 1.0 6.0 0.00 0.00 0.00 100 1014.7
20260510170304 92 298 6.0 9.0 0.00 0.00 0.00 100 1014.5
20260510165804 93 187 0.0 8.0 0.00 0.00 0.00 100 1014.6
20260510165306 92 316 5.0 10.0 0.00 0.00 0.00 100 1014.7
20260510164804 93 299 3.0 11.0 0.00 0.00 0.00 100 1014.7
20260510164304 92 192 0.0 9.0 0.00 0.00 0.00 100 1014.7
20260510163804 92 227 2.0 8.0 0.00 0.00 0.00 100 1014.6
20260510163304 92 322 4.0 8.0 0.00 0.00 0.00 100 1014.6
20260510162804 92 261 6.0 9.0 0.00 0.00 0.00 100 1014.6
20260510162306 92 305 2.0 6.0 0.00 0.00 0.00 100 1014.5
20260510161804 92 323 1.0 8.0 0.00 0.00 0.00 100 1014.5
20260510161304 92 329 3.0 7.0 0.00 0.00 0.00 100 1014.5
20260510160804 92 267 2.0 8.0 0.00 0.00 0.00 100 1014.7
20260510160304 92 275 1.0 9.0 0.00 0.00 0.00 100 1014.7
20260510155804 91 146 2.0 6.0 0.00 0.00 0.00 100 1014.7
20260510155306 92 302 2.0 8.0 0.00 0.00 0.00 100 1014.7
20260510154804 91 316 4.0 8.0 0.00 0.00 0.00 100 1014.7
20260510154304 91 267 3.0 10.0 0.00 0.00 0.00 100 1014.8
20260510153804 92 306 1.0 9.0 0.00 0.00 0.00 100 1014.6
20260510153304 91 206 3.0 9.0 0.00 0.00 0.00 100 1014.6
20260510152804 91 233 2.0 6.0 0.00 0.00 0.00 100 1014.7
20260510152307 91 295 2.0 8.0 0.00 0.00 0.00 100 1014.7
20260510151804 91 203 3.0 6.0 0.00 0.00 0.00 100 1014.7
20260510151304 91 191 2.0 6.0 0.00 0.00 0.00 100 1014.6
20260510150804 91 181 2.0 7.0 0.00 0.00 0.00 100 1014.6
20260510150304 91 247 0.0 7.0 0.00 0.00 0.00 100 1014.6
20260510145804 91 4 3.0 6.0 0.00 0.00 0.00 100 1014.5
20260510145306 91 215 0.0 6.0 0.00 0.00 0.00 100 1014.5
20260510144804 91 240 3.0 11.0 0.00 0.00 0.00 100 1014.4
20260510144304 91 270 3.0 6.0 0.00 0.00 0.00 100 1014.5
20260510143944 91 319 4.0 4.0 0.00 0.00 0.00 100 1014.6
20260510143804 91 319 4.0 4.0 0.00 0.00 0.00 100 1014.6
20260510143304 90 184 2.0 8.0 0.00 0.00 0.00 100 1014.6
20260510142806 90 247 6.0 8.0 0.00 0.00 0.00 100 1014.6
20260510142306 90 237 0.0 7.0 0.00 0.00 0.00 100 1014.6
20260510141804 89 279 1.0 5.0 0.00 0.00 0.00 100 1014.6
20260510141304 89 237 0.0 1.0 0.00 0.00 0.00 100 1014.5
20260510140821 89 237 0.0 9.0 0.00 0.00 0.00 100 1014.4
20260510140804 89 250 1.0 5.0 0.00 0.00 0.00 100 1014.5
20260510140304 89 237 0.0 9.0 0.00 0.00 0.00 100 1014.4
20260510135804 89 226 2.0 6.0 0.00 0.00 0.00 100 1014.3
20260510135306 89 281 3.0 6.0 0.00 0.00 0.00 100 1014.3
20260510134804 89 220 4.0 6.0 0.00 0.00 0.00 100 1014.2
20260510134305 88 209 4.0 5.0 0.00 0.00 0.00 100 1014.2
20260510133804 88 185 3.0 4.0 0.00 0.00 0.00 100 1014.1
20260510133019 88 210 2.0 8.0 0.00 0.00 0.00 100 1014.1
20260510132805 88 210 2.0 8.0 0.00 0.00 0.00 100 1014.1
20260510132306 87 195 4.0 6.0 0.00 0.00 0.00 100 1014.0
20260510131804 87 225 1.0 5.0 0.00 0.00 0.00 100 1014.1
20260510131304 87 251 1.0 9.0 0.00 0.00 0.00 100 1014.1
20260510130804 86 175 5.0 8.0 0.00 0.00 0.00 100 1014.2
20260510130304 86 181 3.0 5.0 0.00 0.00 0.00 100 1014.1
20260510125804 86 230 2.0 5.0 0.00 0.00 0.00 100 1014.1
20260510125307 86 147 3.0 8.0 0.00 0.00 0.00 100 1013.9
20260510124804 86 229 6.0 6.0 0.00 0.00 0.00 100 1013.9
20260510124304 85 199 2.0 6.0 0.00 0.00 0.00 100 1013.9
20260510123804 85 198 2.0 7.0 0.00 0.00 0.00 100 1013.8
20260510123525 85 216 3.0 7.0 0.00 0.00 0.00 100 1013.8
20260510123304 85 216 3.0 7.0 0.00 0.00 0.00 100 1013.8
20260510122926 84 167 3.0 7.0 0.00 0.00 0.00 100 1013.9
20260510122804 84 167 3.0 7.0 0.00 0.00 0.00 100 1013.9
20260510122306 84 208 0.0 5.0 0.00 0.00 0.00 100 1014.0
20260510121804 84 201 1.0 4.0 0.00 0.00 0.00 100 1013.8
20260510121304 83 170 0.0 7.0 0.00 0.00 0.00 100 1013.8
20260510121012 83 123 0.0 5.0 0.00 0.00 0.00 100 1013.7
20260510120804 83 123 0.0 5.0 0.00 0.00 0.00 100 1013.7
20260510120304 83 217 0.0 5.0 0.00 0.00 0.00 100 1013.7
20260510115804 83 208 4.0 5.0 0.00 0.00 0.00 100 1013.6
20260510115306 83 170 2.0 5.0 0.00 0.00 0.00 100 1013.5
20260510114804 83 127 0.0 4.0 0.00 0.00 0.00 100 1013.5
20260510114304 82 219 4.0 7.0 0.00 0.00 0.00 100 1013.4
20260510114009 82 174 0.0 5.0 0.00 0.00 0.00 100 1013.3
20260510113804 82 174 0.0 5.0 0.00 0.00 0.00 100 1013.3
20260510113304 82 229 0.0 0.0 0.00 0.00 0.00 100 1013.2
20260510112952 82 229 0.0 0.0 0.00 0.00 0.00 100 1013.1
20260510112804 82 229 0.0 0.0 0.00 0.00 0.00 100 1013.1
20260510112306 82 229 0.0 0.0 0.00 0.00 0.00 100 1012.8
20260510112001 82 229 0.0 0.0 0.00 0.00 0.00 100 1013.0
20260510111804 82 229 0.0 0.0 0.00 0.00 0.00 100 1013.0
20260510111304 82 229 0.0 0.0 0.00 0.00 0.00 100 1013.0
20260510110804 82 229 0.0 0.0 0.00 0.00 0.00 100 1012.9
20260510110304 82 229 0.0 0.0 0.00 0.00 0.00 100 1012.8
20260510105804 82 229 0.0 0.0 0.00 0.00 0.00 100 1012.8
20260510105306 82 229 0.0 0.0 0.00 0.00 0.00 100 1012.7
20260510104804 82 229 0.0 0.0 0.00 0.00 0.00 100 1012.6
20260510104304 82 229 0.0 0.0 0.00 0.00 0.00 100 1012.6
20260510103804 82 229 0.0 0.0 0.00 0.00 0.00 100 1012.4
20260510103304 82 229 0.0 0.0 0.00 0.00 0.00 100 1012.4
20260510102804 82 229 0.0 0.0 0.00 0.00 0.00 100 1012.4
20260510102306 82 229 0.0 0.0 0.00 0.00 0.00 100 1012.3
20260510101804 82 229 0.0 0.0 0.00 0.00 0.00 100 1012.2
20260510101304 82 229 0.0 0.0 0.00 0.00 0.00 100 1012.0
20260510100804 82 229 0.0 0.0 0.00 0.00 0.00 100 1012.0
20260510100304 82 229 0.0 0.0 0.00 0.00 0.00 100 1011.9
20260510095822 82 229 0.0 0.0 0.00 0.00 0.00 100 1011.8
20260510095805 82 229 0.0 0.0 0.00 0.00 0.00 100 1011.7
20260510095306 82 229 0.0 0.0 0.00 0.00 0.00 100 1011.8
20260510094805 83 229 0.0 0.0 0.00 0.00 0.00 100 1011.7
20260510094305 83 229 0.0 0.0 0.00 0.00 0.00 100 1011.7
20260510093805 83 229 0.0 0.0 0.00 0.00 0.00 100 1011.7
20260510093305 83 229 0.0 0.0 0.00 0.00 0.00 100 1011.8
20260510092805 83 229 0.0 0.0 0.00 0.00 0.00 100 1011.6
20260510092306 83 229 0.0 0.0 0.00 0.00 0.00 100 1011.4
20260510091805 83 229 0.0 0.0 0.00 0.00 0.00 100 1011.4
20260510091305 83 229 0.0 0.0 0.00 0.00 0.00 100 1011.5
20260510090805 83 229 0.0 0.0 0.00 0.00 0.00 100 1011.3
20260510090305 83 229 0.0 0.0 0.00 0.00 0.00 100 1011.3
20260510085805 83 229 0.0 3.0 0.00 0.00 0.00 100 1011.2
20260510085306 83 196 2.0 3.0 0.00 0.00 0.00 100 1011.0
20260510084805 83 165 0.0 3.0 0.00 0.00 0.00 100 1011.1
20260510084305 83 171 0.0 2.0 0.00 0.00 0.00 100 1011.1
20260510084050 83 164 1.0 5.0 0.00 0.00 0.00 100 1010.9
20260510083805 83 164 1.0 5.0 0.00 0.00 0.00 100 1010.9
20260510083305 83 208 3.0 4.0 0.00 0.00 0.00 100 1010.9
20260510082805 83 170 1.0 3.0 0.00 0.00 0.00 100 1010.8
20260510082306 83 177 0.0 2.0 0.00 0.00 0.00 100 1010.9
20260510081805 83 206 0.0 2.0 0.00 0.00 0.00 100 1010.9
20260510081305 84 191 0.0 2.0 0.00 0.00 0.00 100 1011.0
20260510080805 84 175 0.0 1.0 0.00 0.00 0.00 100 1011.0
20260510080305 84 161 0.0 2.0 0.00 0.00 0.00 100 1011.0
20260510075948 84 201 0.0 5.0 0.00 0.00 0.00 100 1011.0
20260510075805 84 201 0.0 5.0 0.00 0.00 0.00 100 1011.0
20260510075306 84 147 0.0 4.0 0.00 0.00 0.00 100 1011.2
20260510074805 84 194 0.0 5.0 0.00 0.00 0.00 100 1011.2
20260510074305 84 199 0.0 0.0 0.00 0.00 0.00 100 1011.1
20260510073805 84 199 0.0 0.0 0.00 0.00 0.00 100 1011.0
20260510073305 84 199 0.0 0.0 0.00 0.00 0.00 100 1011.1
20260510072805 84 199 0.0 0.0 0.00 0.00 0.00 100 1011.2
20260510072306 84 199 0.0 0.0 0.00 0.00 0.00 100 1011.2
20260510071805 85 199 0.0 0.0 0.00 0.00 0.00 100 1011.3
20260510071305 85 199 0.0 0.0 0.00 0.00 0.00 100 1011.4
20260510070805 85 199 0.0 0.0 0.00 0.00 0.00 100 1011.4
20260510070305 85 199 0.0 0.0 0.00 0.00 0.00 100 1011.4
20260510065805 85 199 0.0 0.0 0.00 0.00 0.00 100 1011.4
20260510065306 85 199 0.0 2.0 0.00 0.00 0.00 100 1011.5
20260510065025 85 150 0.0 2.0 0.00 0.00 0.00 100 1011.5
20260510064805 85 150 0.0 2.0 0.00 0.00 0.00 100 1011.5
20260510064305 85 184 0.0 2.0 0.00 0.00 0.00 100 1011.7
20260510063805 85 180 0.0 0.0 0.00 0.00 0.00 100 1011.8
20260510063305 85 180 0.0 1.0 0.00 0.00 0.00 100 1011.9
20260510062805 85 142 0.0 2.0 0.00 0.00 0.00 100 1011.9
20260510062307 85 175 1.0 2.0 0.00 0.00 0.00 100 1011.9
20260510061805 85 8 0.0 0.0 0.00 0.00 0.00 100 1012.0
20260510061305 85 8 0.0 0.0 0.00 0.00 0.00 100 1012.0
20260510060805 85 8 0.0 0.0 0.00 0.00 0.00 100 1012.0
20260510060305 85 8 0.0 0.0 0.00 0.00 0.00 100 1012.0
20260510055805 85 8 0.0 0.0 0.00 0.00 0.00 100 1012.2
20260510055307 85 8 0.0 0.0 0.00 0.00 0.00 100 1012.3
20260510054805 85 8 0.0 0.0 0.00 0.00 0.00 100 1012.3
20260510054305 85 8 0.0 0.0 0.00 0.00 0.00 100 1012.4
20260510053805 85 8 0.0 0.0 0.00 0.00 0.00 100 1012.5
20260510053305 85 8 0.0 0.0 0.00 0.00 0.00 100 1012.6
20260510052805 85 8 0.0 0.0 0.00 0.00 0.00 100 1012.5
20260510052306 85 8 0.0 0.0 0.00 0.00 0.00 100 1012.6
20260510051805 85 8 0.0 0.0 0.00 0.00 0.00 100 1012.6
20260510051305 84 8 0.0 0.0 0.00 0.00 0.00 100 1012.7
20260510050805 84 8 0.0 0.0 0.00 0.00 0.00 100 1012.6
20260510050305 84 8 0.0 0.0 0.00 0.00 0.00 100 1012.6
20260510045805 84 8 0.0 0.0 0.00 0.00 0.00 100 1012.6
20260510045306 84 8 0.0 0.0 0.00 0.00 0.00 100 1012.7
20260510044805 84 8 0.0 0.0 0.00 0.00 0.00 100 1012.8
20260510044305 84 8 0.0 0.0 0.00 0.00 0.00 100 1012.8
20260510043805 84 8 0.0 0.0 0.00 0.00 0.00 100 1012.8
20260510043305 84 8 0.0 0.0 0.00 0.00 0.00 100 1012.9
20260510042805 84 8 0.0 0.0 0.00 0.00 0.00 100 1012.9
20260510042307 84 8 0.0 0.0 0.00 0.00 0.00 100 1012.9
20260510041805 84 8 0.0 0.0 0.00 0.00 0.00 100 1012.9
20260510041305 84 8 0.0 0.0 0.00 0.00 0.00 100 1012.9
20260510040805 84 8 0.0 0.0 0.00 0.00 0.00 100 1012.8
20260510040305 84 8 0.0 0.0 0.00 0.00 0.00 100 1012.8
20260510035805 84 8 0.0 0.0 0.00 0.00 0.00 100 1012.8
20260510035306 84 8 0.0 0.0 0.00 0.00 0.00 100 1012.8
20260510034805 84 8 0.0 0.0 0.00 0.00 0.00 100 1012.8
20260510034305 84 8 0.0 0.0 0.00 0.00 0.00 100 1012.8
20260510033805 84 8 0.0 0.0 0.00 0.00 0.00 100 1012.8
20260510033305 84 8 0.0 0.0 0.00 0.00 0.00 100 1012.6
20260510032805 84 8 0.0 0.0 0.00 0.00 0.00 100 1012.7
20260510032306 84 8 0.0 0.0 0.00 0.00 0.00 100 1012.6
20260510031805 85 8 0.0 0.0 0.00 0.00 0.00 100 1012.6
20260510031305 85 8 0.0 0.0 0.00 0.00 0.00 100 1012.5
20260510030805 85 8 0.0 0.0 0.00 0.00 0.00 100 1012.5
20260510030305 85 8 0.0 0.0 0.00 0.00 0.00 100 1012.5
20260510025805 85 8 0.0 0.0 0.00 0.00 0.00 100 1012.5
20260510025306 85 8 0.0 0.0 0.00 0.00 0.00 100 1012.3
20260510024805 85 8 0.0 0.0 0.00 0.00 0.00 100 1012.2
20260510024305 85 8 0.0 0.0 0.00 0.00 0.00 100 1012.3
20260510023805 85 8 0.0 0.0 0.00 0.00 0.00 100 1012.3
20260510023305 85 8 0.0 0.0 0.00 0.00 0.00 100 1012.4
20260510022806 85 8 0.0 0.0 0.00 0.00 0.00 100 1011.0
20260510022306 85 8 0.0 0.0 0.00 0.00 0.00 100 1012.3
20260510021805 85 8 0.0 0.0 0.00 0.00 0.00 100 1012.3
20260510021305 85 8 0.0 0.0 0.00 0.00 0.00 100 1012.3
20260510020805 85 8 0.0 0.0 0.00 0.00 0.00 100 1012.3
20260510020305 85 8 0.0 0.0 0.00 0.00 0.00 100 1012.3
20260510015805 85 8 0.0 0.0 0.00 0.00 0.00 100 1012.3
20260510015306 85 8 0.0 0.0 0.00 0.00 0.00 100 1012.3
20260510014805 85 8 0.0 0.0 0.00 0.00 0.00 100 1011.7
20260510014305 85 8 0.0 0.0 0.00 0.00 0.00 100 1012.2
20260510013805 85 8 0.0 0.0 0.00 0.00 0.00 100 1012.1
20260510013305 85 8 0.0 0.0 0.00 0.00 0.00 100 1012.2
20260510012805 85 8 0.0 0.0 0.00 0.00 0.00 100 1012.2
20260510012307 85 8 0.0 0.0 0.00 0.00 0.00 100 1012.1
20260510011805 85 8 0.0 0.0 0.00 0.00 0.00 100 1012.0
20260510011305 85 8 0.0 0.0 0.00 0.00 0.00 100 1011.8
20260510010805 85 8 0.0 0.0 0.00 0.00 0.00 100 1011.8
20260510010305 85 8 0.0 0.0 0.00 0.00 0.00 100 1011.7
20260510005805 85 8 0.0 0.0 0.00 0.00 0.00 100 1010.2
20260510005306 85 8 0.0 0.0 0.00 0.00 0.00 100 1011.2
20260510004805 85 8 0.0 0.0 0.00 0.00 0.00 100 1010.2
20260510004305 85 8 0.0 0.0 0.00 0.00 0.00 100 1010.2
20260510003805 85 8 0.0 0.0 0.00 0.00 0.00 100 1009.9
20260510003305 85 8 0.0 0.0 0.00 0.00 0.00 100 1010.6
20260510002805 85 8 0.0 0.0 0.00 0.00 0.00 100 1010.1
20260510002307 85 8 0.0 2.0 0.00 0.00 0.00 100 1011.5
20260510001805 85 347 0.0 1.0 0.00 0.00 0.00 100 1011.4
20260510001305 85 28 0.0 2.0 0.00 0.00 0.00 100 1011.3
20260510000805 85 233 0.0 0.0 0.00 0.00 0.00 100 1011.3
20260510000305 85 233 0.0 0.0 0.00 0.00 0.00 100 1011.1
20260509235805 85 233 0.0 0.0 0.00 0.00 0.00 100 1011.0
20260509235307 85 233 0.0 0.0 0.00 0.00 0.00 100 1011.0
20260509234805 85 233 0.0 0.0 0.00 0.00 0.00 100 1010.9
20260509234305 85 233 0.0 0.0 0.00 0.00 0.00 100 1010.7
20260509233805 86 233 0.0 2.0 0.00 0.00 0.00 100 1010.8
20260509233305 86 289 0.0 0.0 0.00 0.00 0.00 100 1010.8
20260509232805 86 289 0.0 6.0 0.00 0.00 0.00 100 1010.8
20260509232306 87 288 3.0 8.0 0.00 0.00 0.00 100 1010.8
20260509231805 87 244 0.0 5.0 0.00 0.00 0.00 100 1010.7
20260509231305 87 275 3.0 5.0 0.00 0.00 0.00 100 1010.7
20260509230805 87 292 3.0 6.0 0.00 0.00 0.00 100 1010.7
20260509230305 87 174 0.0 6.0 0.00 0.00 0.00 100 1010.7
20260509225805 88 15 0.0 5.0 0.00 0.00 0.00 100 1010.6
20260509225306 87 262 2.0 9.0 0.00 0.00 0.00 100 1010.5
20260509225133 87 220 6.0 7.0 0.00 0.00 0.00 100 1010.5
20260509224805 87 220 6.0 7.0 0.00 0.00 0.00 100 1010.5
20260509224306 87 209 1.0 4.0 0.00 0.00 0.00 100 1010.6
20260509223806 87 229 0.0 4.0 0.00 0.00 0.00 100 1010.6
20260509223306 87 88 0.0 3.0 0.00 0.00 0.00 100 1010.5
20260509222806 87 241 0.0 6.0 0.00 0.00 0.00 100 1010.6
20260509222307 88 354 3.0 6.0 0.00 0.00 0.00 100 1010.5
20260509221806 88 115 0.0 6.0 0.00 0.00 0.00 100 1010.3
20260509221306 88 278 0.0 7.0 0.00 0.00 0.00 100 1010.3
20260509220806 88 303 5.0 5.0 0.00 0.00 0.00 100 1010.3
20260509220306 88 279 1.0 8.0 0.00 0.00 0.00 100 1010.3
20260509215806 88 196 1.0 6.0 0.00 0.00 0.00 100 1010.2
20260509215306 88 254 0.0 8.0 0.00 0.00 0.00 100 1010.3
20260509214806 89 232 3.0 6.0 0.00 0.00 0.00 100 1010.2
20260509214306 89 300 0.0 6.0 0.00 0.00 0.00 100 1010.1
20260509213806 89 172 1.0 7.0 0.00 0.00 0.00 100 1010.0
20260509213306 89 182 0.0 4.0 0.00 0.00 0.00 100 1010.1
20260509213022 89 295 1.0 7.0 0.00 0.00 0.00 100 1009.9
20260509212806 89 295 1.0 7.0 0.00 0.00 0.00 100 1009.9
20260509212306 89 151 0.0 8.0 0.00 0.00 0.00 100 1010.0
20260509211806 89 236 2.0 5.0 0.00 0.00 0.00 100 1009.9
20260509211306 89 234 0.0 11.0 0.00 0.00 0.00 100 1009.6
20260509210806 89 272 0.0 9.0 0.00 0.00 0.00 100 1009.9
20260509210306 89 254 2.0 9.0 0.00 0.00 0.00 100 1009.8
20260509205806 89 160 1.0 11.0 0.00 0.00 0.00 100 1009.9
20260509205307 89 278 1.0 10.0 0.00 0.00 0.00 100 1009.9
20260509204806 89 240 6.0 10.0 0.00 0.00 0.00 100 1009.8